Location: Kawakawa
(35.3830°S, 174.0670°E)
Time: 10:24:16
(UTC+13:00)

Vanguard 2 - Visible Passes

Search period start: 08 December 2019 00:00
Search period end: 18 December 2019 00:00
Orbit: 553 x 2938 km, 32.9° (Epoch: 07 December)

Date Brightness Start Highest point End Pass type
(mag) Time Alt. Az. Time Alt. Az. Time Alt. Az.
08 Dec 9.4 21:34:21 10° W 21:39:31 29° NNW 21:45:28 15° NNE visible
09 Dec 9.8 21:52:52 10° WNW 21:57:34 21° NNW 22:02:06 14° NNE visible
10 Dec 10.2 22:12:02 10° NW 22:15:38 15° NNW 22:18:49 12° N visible
13 Dec 10.0 20:58:26 10° NW 21:00:37 12° NNW 21:03:07 10° N visible
